| time (UTC) | temp F | wind direction | speed knots | gust knots | rain 1hr in | rain 24hr in | rain mn in | humidity % | barometer mb |
| 20260504044529 | 46 | 217 | 0.0 | 0.0 | 0.00 | 0.00 | 0.00 | 89 | 1013.1 |
| 20260504043025 | 46 | 217 | 0.0 | 0.0 | 0.00 | 0.00 | 0.00 | 88 | 1013.2 |
| 20260504041521 | 46 | 217 | 0.0 | 0.0 | 0.00 | 0.00 | 0.00 | 88 | 1013.4 |
| 20260504040019 | 47 | 217 | 0.0 | 0.0 | 0.00 | 0.00 | 0.00 | 87 | 1013.6 |
| 20260504034519 | 47 | 217 | 0.0 | 0.0 | 0.00 | 0.00 | 0.00 | 87 | 1013.6 |
| 20260504033018 | 47 | 217 | 0.0 | 0.0 | 0.00 | 0.00 | 0.00 | 86 | 1013.5 |
| 20260504031518 | 48 | 217 | 0.0 | 0.0 | 0.00 | 0.00 | 0.00 | 84 | 1013.5 |
| 20260504030018 | 49 | 217 | 0.0 | 0.0 | 0.00 | 0.00 | 0.00 | 83 | 1013.4 |
| 20260504024517 | 49 | 217 | 0.0 | 0.0 | 0.00 | 0.00 | 0.00 | 82 | 1013.4 |
| 20260504023016 | 50 | 217 | 0.0 | 0.0 | 0.00 | 0.00 | 0.00 | 80 | 1013.3 |
| 20260504021516 | 51 | 217 | 0.0 | 0.0 | 0.00 | 0.00 | 0.00 | 77 | 1013.1 |
| 20260504020017 | 52 | 217 | 0.0 | 0.0 | 0.00 | 0.00 | 0.00 | 75 | 1013.0 |
| 20260504014524 | 53 | 217 | 0.0 | 0.0 | 0.00 | 0.00 | 0.00 | 72 | 1012.7 |
| 20260504013014 | 54 | 217 | 0.0 | 0.0 | 0.00 | 0.00 | 0.00 | 69 | 1012.6 |
| 20260504011514 | 56 | 217 | 0.0 | 0.0 | 0.00 | 0.00 | 0.00 | 66 | 1012.6 |
| 20260504010013 | 57 | 217 | 0.0 | 0.0 | 0.00 | 0.00 | 0.00 | 65 | 1012.6 |
| 20260504004513 | 59 | 217 | 0.0 | 0.0 | 0.00 | 0.00 | 0.00 | 62 | 1012.4 |
| 20260504003011 | 60 | 217 | 0.0 | 0.0 | 0.00 | 0.00 | 0.00 | 58 | 1012.3 |
| 20260504001511 | 62 | 217 | 0.0 | 0.0 | 0.00 | 0.00 | 0.00 | 56 | 1012.1 |
| 20260504000025 | 63 | 217 | 0.0 | 0.0 | 0.00 | 0.00 | 0.00 | 53 | 1012.0 |
| 20260503234509 | 64 | 171 | 0.0 | 0.0 | 0.00 | 0.00 | 0.00 | 49 | 1012.1 |
| 20260503233008 | 66 | 239 | 0.9 | 0.0 | 0.00 | 0.00 | 0.00 | 49 | 1012.1 |
| 20260503231507 | 66 | 171 | 0.9 | 0.0 | 0.00 | 0.00 | 0.00 | 47 | 1012.1 |
| 20260503230023 | 67 | 65 | 0.9 | 0.0 | 0.00 | 0.00 | 0.00 | 46 | 1012.1 |
| 20260503224523 | 69 | 219 | 1.7 | 0.0 | 0.00 | 0.00 | 0.00 | 44 | 1012.1 |
| 20260503223021 | 70 | 205 | 0.9 | 0.0 | 0.00 | 0.00 | 0.00 | 44 | 1012.2 |
| 20260503221520 | 72 | 90 | 1.7 | 0.0 | 0.00 | 0.00 | 0.00 | 41 | 1012.2 |
| 20260503220021 | 72 | 92 | 0.9 | 0.0 | 0.00 | 0.00 | 0.00 | 38 | 1012.4 |
| 20260503214526 | 72 | 84 | 2.6 | 0.0 | 0.00 | 0.00 | 0.00 | 40 | 1012.4 |
| 20260503213017 | 72 | 264 | 1.7 | 0.0 | 0.00 | 0.00 | 0.00 | 38 | 1012.5 |
| 20260503211517 | 71 | 253 | 1.7 | 0.0 | 0.00 | 0.00 | 0.00 | 43 | 1012.6 |
| 20260503210036 | 71 | 107 | 1.7 | 0.0 | 0.00 | 0.00 | 0.00 | 44 | 1012.7 |
| 20260503204514 | 72 | 150 | 2.6 | 0.0 | 0.00 | 0.00 | 0.00 | 38 | 1012.9 |
| 20260503203015 | 72 | 218 | 1.7 | 0.0 | 0.00 | 0.00 | 0.00 | 42 | 1013.1 |
| 20260503201511 | 71 | 167 | 2.6 | 0.0 | 0.00 | 0.00 | 0.00 | 42 | 1013.4 |
| 20260503200012 | 70 | 141 | 1.7 | 0.0 | 0.00 | 0.00 | 0.00 | 41 | 1013.7 |
| 20260503194509 | 70 | 11 | 1.7 | 0.0 | 0.00 | 0.00 | 0.00 | 41 | 1013.9 |
| 20260503193010 | 70 | 145 | 1.7 | 0.0 | 0.00 | 0.00 | 0.00 | 42 | 1014.2 |
| 20260503191506 | 70 | 5 | 2.6 | 0.0 | 0.00 | 0.00 | 0.00 | 47 | 1014.4 |
| 20260503190005 | 69 | 72 | 2.6 | 0.0 | 0.00 | 0.00 | 0.00 | 44 | 1014.6 |
| 20260503184505 | 69 | 107 | 2.6 | 0.0 | 0.00 | 0.00 | 0.00 | 37 | 1014.8 |
| 20260503183004 | 70 | 216 | 2.6 | 0.0 | 0.00 | 0.00 | 0.00 | 43 | 1015.0 |
| 20260503181501 | 68 | 98 | 1.7 | 0.0 | 0.00 | 0.00 | 0.00 | 45 | 1014.9 |
| 20260503180107 | 67 | 163 | 1.7 | 0.0 | 0.00 | 0.00 | 0.00 | 46 | 1015.1 |
| 20260503174558 | 68 | 331 | 2.6 | 0.0 | 0.00 | 0.00 | 0.00 | 45 | 1015.3 |
| 20260503173150 | 66 | 154 | 1.7 | 0.0 | 0.00 | 0.00 | 0.00 | 50 | 1015.4 |
| 20260503171555 | 67 | 112 | 2.6 | 0.0 | 0.00 | 0.00 | 0.00 | 45 | 1015.8 |
| 20260503120113 | 41 | 260 | 0.0 | 0.0 | 0.00 | 0.00 | 0.00 | 96 | 1016.6 |
| 20260503110152 | 37 | 261 | 0.0 | 0.0 | 0.00 | 0.00 | 0.00 | 92 | 1015.8 |
| 20260503081502 | 39 | 261 | 0.0 | 0.0 | 0.00 | 0.00 | 0.00 | 91 | 1013.9 |
| 20260503071557 | 40 | 260 | 0.0 | 0.0 | 0.00 | 0.00 | 0.00 | 90 | 1013.4 |